EW6494 Weather Reports


time (UTC)temp
F
wind
direction
speed
knots
gust
knots
rain 1hr
in
rain 24hr
in
rain mn
in
humidity
%
barometer
mb
20260505194545 59 324 0.9 4.3 0.00 0.01 0.01 79 1015.8
20260505193044 58 184 1.7 5.2 0.00 0.01 0.01 79 1015.8
20260505191546 59 296 0.9 3.5 0.00 0.01 0.01 81 1015.7
20260505190042 58 288 1.7 4.3 0.00 0.01 0.01 82 1015.6
20260505184539 58 281 0.0 2.6 0.00 0.01 0.01 85 1015.6
20260505183050 57 267 0.9 4.3 0.00 0.01 0.01 86 1015.6
20260505181535 57 210 0.9 3.5 0.00 0.01 0.01 87 1015.5
20260505180041 56 260 0.9 3.5 0.00 0.01 0.01 87 1015.5
20260505174536 57 276 0.9 3.5 0.00 0.01 0.01 87 1015.4
20260505173033 57 297 0.0 4.3 0.00 0.01 0.01 86 1015.3
20260505171530 57 243 0.0 2.6 0.00 0.01 0.01 87 1015.2
20260505170029 56 258 0.0 2.6 0.00 0.01 0.01 87 1015.1
20260505164526 56 293 0.0 2.6 0.00 0.01 0.01 88 1015.1
20260505163028 55 224 0.0 2.6 0.00 0.01 0.01 89 1015.1
20260505161525 56 253 0.9 2.6 0.00 0.01 0.01 88 1015.1
20260505153023 54 243 0.0 0.0 0.00 0.01 0.01 92 1015.2
20260505151518 54 266 0.0 0.0 0.00 0.01 0.01 94 1015.0
20260505124514 53 46 0.0 0.9 0.01 0.02 0.01 94 1014.2
20260505123007 53 340 0.0 0.9 0.00 0.01 0.00 94 1014.3
20260505121508 53 228 0.0 0.9 0.00 0.01 0.00 94 1014.1
20260505120014 53 229 0.0 0.0 0.00 0.01 0.00 94 1014.1
20260505114504 53 230 0.0 0.0 0.00 0.01 0.00 93 1014.0
20260505113003 53 230 0.0 0.0 0.00 0.01 0.00 93 1014.1
20260505111507 53 230 0.0 0.0 0.00 0.01 0.00 93 1014.1
20260505101557 54 216 0.0 1.7 0.00 0.03 0.00 91 1013.7
20260505100058 54 236 0.0 1.7 0.00 0.03 0.00 91 1013.8
20260505094556 54 210 0.0 0.9 0.00 0.03 0.00 91 1013.8
20260505093100 54 221 0.0 0.9 0.00 0.03 0.00 91 1013.7
20260505091606 54 267 0.0 0.9 0.00 0.03 0.00 91 1013.6
20260505090053 54 249 0.0 0.0 0.00 0.03 0.00 91 1013.7
20260505084555 54 167 0.0 0.9 0.00 0.04 0.00 91 1013.7
20260505083058 54 262 0.0 0.9 0.00 0.04 0.00 91 1013.7
20260505081555 54 257 0.0 0.9 0.00 0.04 0.00 91 1013.9
20260505080050 54 192 0.0 0.9 0.00 0.04 0.00 91 1013.9
20260505074548 54 249 0.0 0.9 0.00 0.04 0.00 91 1014.0
20260505073054 54 184 0.0 0.9 0.00 0.04 0.00 91 1014.0
20260505071557 54 105 0.0 0.9 0.00 0.04 0.00 91 1014.0
20260505070048 54 109 0.0 0.9 0.00 0.04 0.00 91 1014.0
20260505064548 54 269 0.0 0.9 0.00 0.05 0.04 91 1013.9
20260505063045 54 283 0.0 0.9 0.00 0.05 0.04 91 1014.0
20260505061548 54 243 0.0 0.9 0.00 0.05 0.04 91 1014.0
20260505060050 54 228 0.0 2.6 0.00 0.05 0.04 91 1014.1
20260505054543 54 236 0.0 1.7 0.00 0.05 0.04 91 1014.1
20260505053043 54 111 0.9 4.3 0.00 0.05 0.04 91 1014.0
20260505051558 54 214 0.0 2.6 0.00 0.05 0.04 90 1014.0
20260505041541 55 215 0.0 1.7 0.00 0.05 0.04 90 1013.6
20260505040041 55 258 0.0 1.7 0.00 0.05 0.04 90 1013.4
20260505034540 55 233 0.0 1.7 0.00 0.05 0.04 89 1013.4
20260505033040 55 208 0.0 3.5 0.00 0.05 0.04 89 1013.2
20260505031544 55 284 0.9 2.6 0.00 0.05 0.04 89 1013.1
20260505030040 55 200 0.0 2.6 0.00 0.05 0.04 88 1012.9
20260505024537 55 195 0.0 3.5 0.00 0.05 0.04 88 1012.9
20260505023038 56 354 0.0 3.5 0.00 0.05 0.04 87 1012.9
20260505021537 56 184 0.9 3.5 0.00 0.05 0.04 86 1012.7
20260505020036 56 205 0.9 2.6 0.00 0.05 0.04 86 1012.8
20260505014536 57 263 0.9 3.5 0.00 0.05 0.04 85 1012.9
20260505013053 57 300 0.9 5.2 0.00 0.05 0.04 84 1013.0
20260505011535 58 233 0.0 2.6 0.00 0.05 0.04 83 1013.1
20260505010035 57 291 2.6 7.8 0.00 0.05 0.04 83 1013.3
20260505004534 59 309 0.9 6.1 0.00 0.05 0.04 81 1013.3
20260505003034 60 311 1.7 7.0 0.00 0.05 0.04 79 1013.3
20260505001533 61 286 2.6 7.8 0.00 0.05 0.04 77 1013.3
20260505000036 60 224 1.7 5.2 0.00 0.05 0.04 78 1013.4
20260504234534 60 212 0.9 5.2 0.00 0.05 0.04 79 1013.4
20260504233030 59 315 1.7 7.8 0.00 0.05 0.04 82 1013.6
20260504231529 60 257 1.7 5.2 0.00 0.05 0.04 79 1013.6
20260504230029 60 325 1.7 7.0 0.00 0.05 0.04 79 1013.6
20260504224529 60 296 2.6 6.1 0.00 0.05 0.04 79 1014.0
20260504223027 60 212 2.6 7.8 0.00 0.05 0.04 77 1014.0
20260504221525 60 278 2.6 6.1 0.00 0.05 0.04 79 1014.1
20260504220037 59 293 1.7 5.2 0.00 0.05 0.04 81 1014.3
20260504214526 60 297 1.7 7.0 0.00 0.05 0.04 81 1014.3
20260504213025 59 259 2.6 8.7 0.00 0.05 0.04 83 1014.2
20260504211532 59 179 1.7 4.3 0.00 0.05 0.04 83 1014.1
20260504210021 58 288 2.6 8.7 0.00 0.05 0.04 84 1014.3
20260504204523 58 280 3.5 8.7 0.00 0.05 0.04 84 1014.3
20260504203026 59 179 3.5 7.8 0.00 0.05 0.04 80 1014.2
20260504201521 59 35 2.6 6.1 0.00 0.05 0.04 82 1014.2
20260504200018 59 239 2.6 7.8 0.00 0.05 0.04 82 1014.2